Theta_e
314 315 319 322 320 314 318 318 318 320 319 318 317 320 323 326 330 325 333 332 332 333 333 334 335 337 333 330 332 331 333 333 333 334 335 335 336 336 335 332 330 329 328 328 329 329 330 329 330
313 318 322 313 318 314 315 316 318 319 316 316 317 320 325 335 332 331 332 333 331 332 332 333 335 335 332 330 332 331 333 332 332 333 334 334 335 336 334 331 329 328 327 327 329 329 330 329 326
318 319 317 317 312 315 315 316 317 316 315 317 319 319 324 334 332 331 333 333 331 332 332 333 335 334 332 329 329 330 331 331 332 332 333 333 334 334 333 330 328 328 327 328 329 329 329 329 328
319 315 311 314 317 316 315 316 316 316 316 316 318 326 324 328 334 334 333 333 334 331 332 333 335 334 328 328 327 328 330 330 329 330 331 332 333 333 330 329 328 326 327 328 329 329 329 325 326
317 311 316 318 316 316 316 315 314 316 315 317 319 322 330 334 336 337 333 335 335 331 332 333 334 334 329 327 327 328 327 326 326 328 331 331 331 331 329 327 326 326 326 328 328 328 329 327 326
313 310 316 317 316 315 314 315 314 314 314 316 319 324 327 334 338 335 337 338 337 334 333 334 334 335 331 327 327 331 326 325 324 325 327 328 329 329 327 326 325 325 325 328 327 327 326 327 326
315 313 315 318 316 316 315 311 312 314 315 317 313 324 325 332 338 337 338 338 338 338 336 334 334 336 334 329 328 330 328 325 323 323 324 326 327 324 323 323 324 324 324 325 326 325 323 322 321
312 313 318 317 316 316 314 315 312 312 314 314 315 324 327 328 338 338 338 338 338 338 338 335 334 336 335 332 330 329 329 326 323 322 321 321 321 317 315 320 322 323 323 324 324 323 321 320 320
310 313 314 316 315 316 313 315 313 313 314 315 315 317 319 329 338 338 337 337 337 338 338 336 334 336 336 334 332 330 329 327 324 322 321 320 319 316 314 316 320 321 322 322 322 321 321 321 320
311 312 313 313 313 314 314 314 313 314 314 315 315 319 324 334 337 336 336 337 338 338 337 336 333 334 336 335 333 332 331 328 325 322 321 319 318 316 312 313 316 316 320 318 319 320 320 320 321
313 312 312 313 313 313 314 313 312 310 313 312 314 318 324 331 335 336 335 337 338 337 337 336 333 332 335 335 334 333 332 329 326 322 320 319 317 316 313 311 312 309 313 318 318 318 318 319 319
315 313 313 313 313 313 314 312 313 310 312 312 309 318 325 328 331 334 335 335 337 337 337 336 334 332 333 334 335 334 333 331 327 323 320 320 320 317 314 311 310 306 313 316 317 316 316 317 318
313 312 312 313 312 312 313 313 313 311 309 309 309 320 324 327 329 332 335 335 335 336 336 335 335 334 334 334 333 333 333 332 330 324 321 323 324 320 316 313 311 307 311 313 314 315 316 316 316
311 311 311 312 312 312 312 311 312 310 308 309 310 317 322 323 325 327 330 333 334 336 336 335 334 334 333 333 333 332 333 332 332 327 323 325 326 323 317 314 312 309 311 314 316 316 316 315 315
312 312 311 311 311 313 311 308 310 308 308 310 308 310 315 320 323 325 329 332 334 335 336 335 334 335 334 333 333 333 332 332 333 331 324 326 326 326 320 316 313 311 314 314 314 315 315 314 313
311 309 308 310 310 312 309 307 307 308 307 308 308 305 306 310 320 324 325 329 332 333 335 335 334 335 334 334 333 333 333 333 334 333 328 326 328 327 325 318 315 313 313 314 314 313 313 312 312
309 307 310 310 309 312 311 309 309 311 310 310 306 305 304 305 307 316 323 325 328 331 332 334 334 334 335 334 333 332 332 332 334 334 333 330 328 329 327 323 318 314 313 314 314 313 312 309 308
310 311 311 310 312 312 312 310 309 308 309 308 307 306 305 305 306 310 313 318 323 326 329 331 334 335 336 334 334 333 333 332 334 335 335 334 331 329 328 328 321 316 315 314 314 313 309 308 306
309 311 312 311 312 313 311 310 309 308 307 306 305 304 305 305 309 310 311 312 315 321 325 328 330 334 335 334 334 334 333 333 334 336 335 335 334 332 329 328 326 319 317 317 315 312 308 302 301
311 312 311 310 312 312 311 310 308 308 308 307 306 305 304 304 305 307 311 312 311 314 318 324 327 331 334 334 334 333 333 333 333 334 335 335 334 333 332 330 327 323 318 315 314 312 303 298 297
311 311 311 311 310 310 310 307 307 308 308 308 306 305 305 304 304 304 306 309 311 311 313 318 323 328 332 334 333 333 333 333 333 333 332 333 334 333 332 330 329 326 321 317 315 312 309 299 295
312 311 311 311 310 309 308 307 308 308 308 307 306 303 303 304 304 305 306 307 309 312 313 314 320 326 330 333 333 332 332 330 330 330 331 331 332 333 333 332 329 327 324 319 315 312 309 303 296
311 311 312 312 310 312 310 309 307 307 308 307 305 305 308 307 307 308 308 311 312 311 312 312 317 324 328 331 332 332 330 329 329 328 328 329 330 332 332 331 329 326 324 321 317 312 307 305 302
310 311 309 308 306 308 308 306 305 307 308 310 308 308 305 306 305 305 310 311 311 313 312 311 313 319 325 329 330 330 329 328 327 326 326 326 327 328 329 328 328 327 325 322 321 317 314 309 304
310 307 308 309 309 308 307 308 306 307 307 309 308 305 304 303 304 305 304 306 309 311 311 311 312 316 321 325 326 328 328 327 327 326 325 324 323 324 326 326 325 325 325 322 319 315 311 307 305
309 307 308 307 311 309 308 310 309 308 307 305 306 306 306 306 306 306 306 307 309 311 310 311 312 312 315 320 324 325 326 326 325 324 323 322 321 321 320 320 323 323 321 320 318 316 314 312 306
311 311 307 308 296 308 308 308 308 307 308 309 308 307 307 307 306 306 307 309 310 310 310 311 311 311 312 312 314 316 318 319 321 321 320 318 317 316 316 315 314 314 313 314 313 313 312 310 309
309 308 312 309 307 307 308 308 309 310 309 310 309 309 308 307 306 305 306 308 309 309 309 309 309 309 310 310 311 312 312 313 314 314 315 315 315 315 314 314 313 313 312 310 311 310 311 311 308
311 311 310 309 308 307 307 308 305 308 310 309 310 310 308 307 306 305 305 309 309 309 310 309 309 310 310 310 310 310 311 311 311 312 313 313 314 314 314 313 313 313 312 309 309 309 309 309 308
309 310 310 311 310 307 310 311 306 308 306 307 308 308 307 306 305 303 305 306 307 308 308 308 310 309 310 310 310 310 309 309 310 310 311 311 312 312 313 312 312 312 311 309 307 307 307 307 307
Wind_Speed
9 9 6 4 4 5 0 1 2 3 3 2 1 7 8 3 2 3 11 20 29 24 21 17 15 15 11 13 14 13 14 15 14 15 16 16 17 19 19 19 19 19 18 20 22 22 21 21 23
6 3 3 2 4 3 3 1 5 3 4 6 7 3 5 2 2 7 21 15 29 25 21 17 16 15 13 13 14 13 14 14 15 16 16 15 16 18 18 18 19 18 18 20 22 20 20 23 22
3 2 3 4 4 4 5 4 6 4 4 2 3 5 5 3 3 19 8 25 28 26 21 18 17 16 14 13 14 14 15 14 15 15 16 16 17 18 18 17 18 17 19 20 19 18 18 21 20
1 4 4 4 2 1 7 6 6 6 1 3 4 6 3 2 21 13 26 32 28 27 22 20 18 16 14 14 14 14 15 15 15 15 15 16 16 16 16 15 16 16 18 19 18 18 19 19 19
3 3 4 3 1 0 2 4 6 4 4 2 4 4 1 8 7 23 32 29 28 26 22 20 19 18 16 15 15 15 14 14 15 15 15 15 15 14 14 14 16 16 17 18 17 17 19 20 18
4 3 4 2 2 0 3 6 7 4 2 3 6 5 4 5 20 33 32 30 26 25 24 21 20 19 17 15 14 14 14 14 14 15 15 15 14 14 15 15 16 16 17 17 16 17 19 20 21
6 4 4 4 4 1 4 7 7 6 6 4 9 5 1 3 26 32 30 29 28 26 26 24 22 20 18 17 16 15 13 13 14 15 15 16 15 15 15 16 16 17 17 17 17 18 19 19 20
5 4 2 1 2 4 4 3 5 6 6 2 6 6 5 12 25 30 29 25 27 27 26 24 24 23 21 19 16 15 14 14 14 14 15 16 15 14 16 17 17 17 18 17 17 17 19 19 16
3 4 2 1 4 4 3 4 2 2 5 2 2 7 5 27 26 24 25 23 25 26 25 24 25 25 23 21 19 17 15 15 15 15 15 16 15 15 16 17 17 17 18 17 18 18 18 19 18
4 4 8 2 3 4 3 3 8 4 3 1 2 2 14 30 28 26 24 24 27 32 29 27 27 26 25 23 21 20 19 18 17 18 17 16 15 15 16 17 17 18 19 19 19 19 17 16 16
3 5 5 2 2 3 4 2 3 8 4 7 9 7 12 18 24 24 24 29 31 32 31 30 29 28 27 26 24 23 21 20 19 19 19 18 17 17 17 18 18 19 21 22 20 17 15 14 15
4 2 3 5 2 3 4 1 3 6 7 5 10 11 16 13 19 25 26 30 32 31 33 30 29 29 28 27 27 26 25 24 23 22 21 21 20 19 20 19 20 21 24 24 21 16 15 15 15
3 1 2 3 5 4 2 2 3 6 8 2 6 11 15 15 22 26 32 31 31 33 34 34 30 29 29 29 29 29 29 27 26 26 26 24 21 21 22 22 22 23 26 23 20 18 16 15 16
4 3 3 2 2 2 1 1 2 6 6 6 8 13 14 13 24 22 26 33 34 34 38 36 34 33 30 30 29 28 29 29 30 30 30 27 24 23 24 24 24 26 26 23 21 20 18 17 18
4 3 1 3 3 2 3 5 8 6 5 4 8 10 10 14 18 27 36 37 40 39 39 39 37 36 34 32 31 32 31 31 32 33 34 31 29 27 27 27 27 28 27 22 21 21 21 21 21
3 5 2 2 6 2 3 7 4 6 4 9 6 7 8 11 24 33 35 39 39 39 39 39 39 38 38 37 34 33 33 34 34 35 37 37 32 33 31 30 30 30 29 25 25 25 25 24 24
5 3 3 4 7 4 4 6 5 2 5 7 8 9 9 10 16 32 36 39 41 42 42 42 42 43 42 41 39 37 34 35 36 35 38 39 39 37 36 34 33 33 33 30 29 28 28 27 24
6 4 4 4 5 1 3 8 9 9 3 10 9 10 10 10 17 30 37 39 41 42 44 44 44 46 46 44 41 39 38 37 39 38 39 40 42 42 41 38 37 36 36 36 32 30 28 29 27
5 4 3 2 3 4 7 7 11 11 8 10 11 10 11 11 21 24 27 33 39 41 41 44 44 46 45 42 40 40 41 39 40 42 40 39 40 43 44 43 39 41 41 40 38 33 31 26 28
3 2 4 2 1 3 4 10 10 8 10 9 9 10 13 8 8 18 28 24 30 41 44 44 45 45 48 43 43 36 35 38 40 41 40 39 40 42 43 43 44 43 43 41 40 39 32 23 34
5 5 3 4 1 1 3 8 6 5 4 6 8 10 7 11 11 9 13 21 26 32 42 45 47 47 47 46 36 34 29 32 35 41 42 43 43 41 43 43 43 46 45 46 47 45 43 28 37
5 5 3 2 3 4 2 5 5 7 10 7 11 6 9 9 7 7 10 14 19 28 35 42 43 44 45 44 39 40 36 31 34 32 39 42 40 42 42 42 42 43 46 46 47 48 47 37 32
6 3 2 2 3 2 3 1 7 4 8 10 9 6 7 7 1 5 5 7 12 16 22 32 38 39 41 43 44 43 34 30 28 30 31 37 39 37 38 40 40 43 43 46 48 46 45 46 37
6 6 7 5 3 3 7 6 5 4 4 4 5 6 7 8 8 8 9 11 13 12 12 17 27 34 36 39 42 42 37 33 30 31 33 34 36 40 40 39 40 41 44 46 51 51 53 52 42
4 6 2 3 2 6 2 2 7 7 6 2 6 6 8 7 7 9 10 15 16 15 12 8 14 23 28 32 36 40 42 40 39 38 38 36 36 38 42 42 37 39 42 45 47 47 49 49 46
7 8 6 7 4 4 1 5 5 1 4 5 6 5 6 8 7 7 7 9 11 12 10 8 8 14 20 25 30 33 37 39 40 39 39 39 39 40 39 40 43 46 42 41 46 48 50 51 46
5 4 5 6 3 3 4 5 10 6 4 6 7 7 7 7 6 8 11 11 10 6 6 8 9 10 12 17 21 26 29 33 37 38 38 38 38 39 38 37 38 40 42 42 39 43 47 47 48
5 7 3 3 2 4 4 4 6 3 3 8 9 8 8 8 9 7 8 12 14 11 9 8 8 10 10 13 18 22 26 30 33 35 37 38 38 37 36 36 36 37 37 36 39 38 43 46 46
3 3 2 5 5 5 1 5 7 5 9 7 5 6 7 7 6 6 10 13 13 14 11 10 8 6 9 12 15 20 23 26 29 33 36 36 36 36 35 36 36 37 38 36 39 39 38 43 43
3 6 6 5 4 3 3 7 5 8 9 6 6 5 5 6 8 7 9 11 14 15 16 15 14 13 13 14 16 18 20 22 26 30 33 33 34 35 36 35 36 37 36 35 36 39 39 41 42
Wind_Direction
293 309 311 38 55 66 263 131 142 120 68 337 52 116 128 95 147 197 162 158 164 160 163 159 145 138 132 121 118 118 111 108 106 108 111 104 104 105 101 98 96 94 95 100 101 98 89 100 102
315 342 36 80 84 73 277 239 137 163 177 149 92 81 56 101 105 104 142 162 167 162 162 159 150 144 137 127 125 123 117 115 114 112 114 108 109 107 103 101 98 99 101 105 106 100 95 99 108
346 12 84 94 113 153 180 167 171 147 170 121 92 59 138 150 90 153 177 166 164 163 163 159 156 149 145 137 134 131 124 119 117 115 117 112 112 111 108 104 103 105 106 109 107 98 105 107 109
96 28 30 83 111 296 169 174 186 138 105 76 116 70 23 237 150 177 160 164 166 166 165 163 160 155 151 147 142 136 131 124 119 119 119 121 119 116 113 109 110 109 111 115 110 106 107 112 109
58 63 61 63 305 85 79 178 166 131 150 128 121 159 41 150 151 156 161 166 166 170 170 168 167 164 159 154 150 144 137 130 127 126 126 129 134 127 121 119 116 115 115 118 110 107 107 119 114
42 96 64 100 269 23 174 181 155 118 184 168 82 110 182 191 157 160 165 170 170 171 175 173 172 169 165 159 155 151 144 139 135 134 133 133 140 136 128 124 123 120 118 117 109 112 118 116 118
113 85 178 178 177 217 193 151 137 160 158 216 157 114 255 201 160 164 168 170 173 172 173 175 176 176 173 169 164 162 153 148 146 142 142 142 148 140 136 132 128 123 123 124 118 117 122 125 124
108 94 127 202 167 205 190 119 131 140 216 115 150 172 192 209 167 166 169 171 175 176 176 177 178 179 178 174 172 171 168 163 157 154 153 153 155 146 140 137 134 130 130 132 125 124 128 132 135
105 70 154 234 158 194 182 133 104 144 117 58 14 156 213 170 171 168 173 179 178 180 183 181 183 184 184 182 179 180 179 174 167 163 163 162 159 152 148 147 144 140 138 138 135 136 135 135 135
88 119 196 202 146 181 188 181 157 124 125 246 357 20 151 161 174 173 177 180 184 185 188 190 190 189 187 187 185 185 184 182 178 175 172 169 165 160 157 155 154 149 149 142 142 141 142 140 139
149 174 200 174 124 118 174 181 198 128 216 205 197 187 168 169 179 188 188 191 192 192 191 192 193 194 192 192 190 190 190 189 187 183 179 175 170 169 167 164 163 158 153 150 152 152 152 151 150
133 164 173 172 130 121 165 291 218 193 217 206 197 172 171 179 190 193 200 199 198 196 193 193 193 194 197 199 198 198 198 196 193 189 187 183 179 179 178 175 170 166 162 160 161 161 160 157 160
148 136 90 127 132 135 166 189 259 250 241 298 128 159 183 190 197 203 205 206 203 203 200 197 198 198 199 204 205 207 207 204 203 196 194 194 192 190 187 183 178 173 171 173 173 176 175 171 168
165 147 155 218 191 119 181 132 55 274 250 203 164 190 194 193 205 206 209 211 210 209 206 200 202 205 209 211 213 216 215 215 207 203 202 204 203 200 195 190 186 181 180 182 183 182 186 179 174
125 132 24 241 212 193 106 298 229 261 314 215 204 207 214 220 207 212 213 214 213 213 209 205 206 206 211 213 218 220 220 217 213 209 208 211 211 209 205 198 192 189 188 190 187 187 189 183 175
83 51 110 256 151 205 110 264 269 329 194 239 240 242 237 237 223 222 221 220 219 218 214 210 210 212 212 214 217 222 225 223 220 216 213 215 217 214 211 207 202 197 195 197 196 193 186 188 185
6 190 199 305 212 142 153 254 249 174 15 302 262 250 235 246 244 235 231 227 225 223 223 223 220 218 217 217 217 219 226 228 224 223 219 219 220 217 217 215 210 202 201 204 204 197 196 185 181
190 198 224 218 215 156 186 257 281 287 253 253 259 259 255 237 241 235 233 233 231 228 226 227 224 223 221 219 219 219 222 230 228 227 225 222 221 222 220 220 216 208 206 208 207 205 198 194 183
148 153 177 236 206 155 226 255 265 275 290 266 256 253 257 247 256 259 248 239 233 232 229 227 224 223 218 212 211 217 218 223 231 229 227 225 224 223 223 222 219 213 212 214 210 203 199 189 187
218 226 235 293 72 165 277 267 256 254 256 243 252 255 246 253 260 261 255 245 235 233 231 229 226 223 219 213 215 215 218 223 228 232 230 229 227 225 224 226 222 218 212 212 210 205 191 190 192
179 175 200 217 15 284 329 292 311 293 245 272 257 246 260 244 258 271 269 256 245 236 233 229 228 224 222 216 211 213 216 223 227 230 236 231 228 227 226 226 228 223 216 215 216 211 204 192 197
184 205 183 176 78 239 52 284 305 270 291 284 282 332 280 273 270 271 279 277 255 248 241 234 229 225 224 218 212 211 214 216 225 227 230 232 227 227 228 228 230 228 223 217 218 215 210 197 198
212 151 138 106 119 34 324 68 273 290 277 285 294 308 14 12 313 309 295 310 303 268 256 243 234 227 223 219 218 218 217 224 228 228 230 234 230 225 225 228 229 227 228 225 223 216 210 210 205
139 75 44 50 69 297 213 169 286 221 223 328 30 55 17 9 9 357 349 354 356 339 297 257 238 231 229 226 223 225 222 223 227 229 231 232 234 233 232 234 233 234 231 227 230 227 224 215 214
87 86 334 339 356 230 52 139 246 264 245 296 33 17 2 4 7 358 352 345 347 342 336 285 243 237 232 230 230 232 233 235 237 238 239 237 236 236 236 234 232 232 235 232 230 227 223 218 214
185 155 162 199 200 269 262 236 244 255 282 4 17 81 58 18 4 347 332 354 351 343 330 323 279 250 240 235 235 238 240 242 244 247 247 248 246 246 245 242 241 241 239 236 237 233 232 231 224
187 186 166 104 28 54 236 290 306 317 37 77 55 45 12 29 351 5 356 21 16 355 334 319 298 274 257 252 249 246 247 246 248 250 252 252 254 254 254 251 248 247 246 240 236 232 232 231 233
157 162 80 0 149 254 258 250 220 195 177 62 39 31 21 8 3 346 329 348 355 353 345 315 293 278 268 257 252 252 251 251 252 253 252 253 256 255 253 252 250 250 250 244 237 235 236 236 233
137 163 109 129 156 182 254 258 222 214 113 111 72 40 32 1 323 317 321 336 336 334 335 318 283 298 275 261 256 254 255 253 252 252 254 255 257 257 255 255 252 251 250 249 241 238 235 234 234
157 176 154 152 234 232 159 250 136 116 114 107 81 42 349 336 318 307 310 316 316 317 308 301 313 286 271 265 261 261 265 262 259 258 260 261 260 261 259 257 255 254 250 250 247 242 238 236 234